Погода в Серове

Поиск расширенной информации на нашем сайте:

Полезная информация:

Новости сайта



02.01.2020
Опубликован Долгосрочный прогноз погоды по городам России и ближнего зарубежья на январь 2020 года.
Карты: Прогноз на январь и февраль 2020 года, Сравнение прогнозируемой аномалии приземной температуры воздуха на январь 2020 года по разным моделям.




Погода в Серове - сегодня

Время (UTC), дата Ветер
(°,м/с) 
Видим.   Явления Облачность Т
(°С)
Тd
(°С)
f(%) Тe
(°С)
Pmin
(гПа)
dP
(гПа)
Po
(мм)
O2
(г/м3)
Тmin Tmax R s Состояние
почвы
12 16.04.21 040 (СВ) 20000 м    ясно 
+8.9 -15.2 16 +9  1027.6  -0.8  759  297           
15 16.04.21 140 (ЮВ) 10 км    ясно 
+6.4 -14.8 20 +7  1026.9  -0.9  759  300    +9.1       
18 16.04.21 тихо ()   10 км    ясно 
+2.1 -12.3 34 +2  1027.7  0.6  759  305           
21 16.04.21 280 (З) 10 км    3/3 600 м 
[Sc]
-3.2 -9.1 64 -4  1027.6  -0.4  759  310           
00 17.04.21 270 (З) 10 км    6/6 600 м 
[Sc]
-1.4 -12.5 43 -2  1026.2  -1.3  758  308           
03 17.04.21 260 (З) 20000 м    8/3 600 м верхняя 
[Sc|Ci]
+1.7 -10.6 40 1024.4  -1.6  757  304  -3.2        влажная 
06 17.04.21 280 (З) 5-10{12}  20000 м    9/4 600 м верхняя 
[Cu Sc|Cs]
+7.8 -7.7 32 +6  1022  -2  755  297           
09 17.04.21 290 (З) 5{12}  20000 м    9/8 600 м верхняя 
[Cu Sc|Cs]
+9.7 -7.5 29 +8  1021  -0.9  754  294           
12 17.04.21 310 (СЗ) 5-11{12}  20000 м    4/3 600 м верхняя 
[Cu Sc|Ci fib]
+10.7 -8.6 25 +10  1019.8  -1.1  753  293           
15 17.04.21 270 (З) 4{11}  10 км    3/3 600 м верхняя 
[Cu Sc|Ci sp]
+8.5 -8 30 +7  1017.9  -2  752  295    +10.7       
18 17.04.21 270 (З) 10 км    ясно 
+6.4 -6.8 38 +5  1015.3  -2.6  750  296           
21 17.04.21 280 (З) 4{10}  10 км    3/3 600 м 
[Sc]
+6.7 -6.5 38 +5  1012.3  -3  748  295           
00 18.04.21 330 (СЗ) 5{16}  10 км  в посл. час снег  10/10 600 м 
[Sc]
+1.2 -5.2 62 -2  1016.4  3.8  751  302           
03 18.04.21 020 (С) 6-10{14}  20000 м    10/10 600 м 
[Sc]
-0.9 -6.9 64 -5  1022.1  5.4  755  306  -0.9    0.0    замёрзшая 
06 18.04.21 020 (С) 6-10{13}  20000 м    10/10 600 м 
[Sc]
-1 -9.9 51 -5  1027  4.8  758  308  -1.3         
09 18.04.21 350 (С) 4{10}  20000 м    10/10 600 м 
[Sc]
+0.5 -12.9 36 -2  1030  761  307           
12 18.04.21 010 (С) 3{10}  20000 м    8/8 600 м 
[Cu Sc]
+2.1 -16.2 24 +1  1031.3  1.4  762  306           
15 18.04.21 360 (С) 10 км    1/1 600 м 
[Cu hum]
+0.4 -20 20 -1  1032.4  762  308    +2.6       
18 18.04.21 300 (СЗ) 10 км    ясно 
-3.8 -16 38 -3  1033.2  0.5  763  313           
21 18.04.21 300 (СЗ) 10 км    ясно 
-5.8 -14.7 49 -7  1033.7  0.4  763  315           
00 19.04.21 330 (СЗ) 10 км    ясно 
-4.8 -14.7 46 -4  1034.9  1.2  764  315           
03 19.04.21 010 (С) 20000 м    ясно 
-2.6 -13.6 42 -5  1035.8  765  312  -6.3        замёрзшая 
06 19.04.21 350 (С) 20000 м    ясно 
+0.8 -15.5 28 1035.3  -0.3  765  308           
09 19.04.21 360 (С) 20000 м    ясно 
+3.8 -16.5 21 +3  1034.3  -0.8  764  305           
12 19.04.21 090 (В) 20000 м    ясно 
+4.7 -20 15 +6  1033  -1.3  763  304           
Время (UTC), дата Ветер
(°,м/с) 
Видим.   Явления Облачность Т
(°С)
Тd
(°С)
f(%) Тe
(°С)
Pmin
(гПа)
dP
(гПа)
Po
(мм)
O2
(г/м3)
Тmin Tmax R s Состояние
почвы

Для получения пояснительной информации подведите курсор к названию столбца.

ПОГОДА в Серове - архив

Всё, что Вы хотите узнать о погоде в Серове - удобно и подробно!

Выберите нужную дату (начиная с 1 января 2019* года) и нажмите кнопку "Найти".
Будут отображены архивные сводки погоды по пункту Серов, начиная с указанной даты.


Отображать данные в формате CSV (для использования в таблицах Excel)


Внимание! Наш архив погоды предназначен исключительно для личного некоммерческого использования в познавательных целях. Если Вам необходимы официальные справки о состоянии погоды (для производственных, юридических, коммерческих и т.п. целей), обращайтесь в органы Росгидромета.

*Примечание: данная дата относится к архиву по метеостанциям СССР (Россия, СНГ, Балтия).
Архив по метеостанциям Зарубежной Европы и Азии (кроме Китая) хранится 10 дней, по другим регионам земного шара (Китай, Африка, Америка, Австралия, Океания) - 1 день.

Серов - район местоположения метеостанции


Название, широта, долгота, высота метеостанции:
Серов 59.6°ш. 60.5°д. 130 м над ур. моря [Российская Федерация]

Дополнительная информация

В oтличие oт бoльшинства пoгoдных сайтoв мы публикуем пoдрoбную метеoинфoрмацию в детальнoм прoфессиoнальнoм фoрмате.

Характеристики температуры и влажнoсти вoздуха измеряются на высoте 2 м в тени вдали oт зданий и деревьев.
Скoрoсть ветра измеряется на высoте 10 м (на урoвне рoста челoвека скoрoсть ветра ниже в 1.5-2 раза). Если метеoстанция нахoдится в гoрoде или в лесу, тo скoрoсть ветра занижена на 2-4 м/с пo сравнению с oткрытым местoм. Скoрoсть ветра над акватoриями крупных рек и oзёр, а также на вершинах хoлмoв на 2-5 м/с выше, чем в oбычных услoвиях.
Атмoсфернoе давление в разных тoчках местнoсти мoжет значительнo oтличаться oт давления на метеoстанции, в зависимoсти oт услoвий рельефа (при пoдъёме на 10 м давление пoнижается примернo на 1 мм рт.ст.).